Overview Statistics Trail Chart Weather Telemetry Raw packets
 

This is the latest recevied weather packets stored in our database for station/object WE1C. If no packets are shown the sender has not sent any weather packets the latest 10 day(s).

<< 1 2 3 4 5 >>
Time Temp. Humidity Pressure Rain* Wind** Luminosity Snow
1788616412 20° C 79% 1038.9 hPa 0 mm - 399 W/m² -
1788616108 20° C 80% 1039.3 hPa 0 mm - 201 W/m² -
1788615806 20° C 81% 1039.2 hPa 0 mm - 174 W/m² -
1788615501 20° C 81% 1039.3 hPa 0 mm - 205 W/m² -
1788615197 20° C 80% 1039.3 hPa 0 mm - 162 W/m² -
1788614895 20° C 81% 1039 hPa 0 mm - 242 W/m² -
1788614591 19.44° C 81% 1039 hPa 0 mm - 277 W/m² -
1788614290 19.44° C 80% 1038.9 hPa 0 mm - 150 W/m² -
1788613986 18.89° C 82% 1039.1 hPa 0 mm - 419 W/m² -
1788613681 19.44° C 82% 1039 hPa 0 mm - 108 W/m² -
1788613380 19.44° C 81% 1039 hPa 0 mm - 127 W/m² -
1788613076 20° C 81% 1038.8 hPa 0 mm - 350 W/m² -
1788612770 19.44° C 81% 1038.5 hPa 0 mm - 326 W/m² -
1788612467 19.44° C 83% 1038.8 hPa 0 mm - 300 W/m² -
1788612163 19.44° C 82% 1039 hPa 0 mm - 141 W/m² -
1788611858 18.89° C 83% 1038.9 hPa 0 mm - 132 W/m² -
1788611555 18.89° C 84% 1038.8 hPa 0 mm - 127 W/m² -
1788611255 18.89° C 83% 1038.9 hPa 0 mm - 147 W/m² -
1788610948 18.89° C 83% 1038.8 hPa 0 mm - 145 W/m² -
1788610644 18.33° C 85% 1038.8 hPa 0 mm - 44 W/m² -
1788610340 17.78° C 87% 1038.4 hPa 0 mm - 138 W/m² -
1788610039 17.22° C 89% 1038.8 hPa 0 mm - 39 W/m² -
1788609733 17.22° C 89% 1038.4 hPa 0 mm - 43 W/m² -
1788609428 16.67° C 90% 1038.5 hPa 0 mm - 41 W/m² -
1788609123 16.67° C 91% 1038.5 hPa 0 mm - 36 W/m² -

* Rain latest hour (hover to see other rain measurements)
** Current wind speed in m/s (hover to see current wind gust speed)